QPF
0.00 0.00 0.00 0.00 0.00 0.00 0.00 0.00 0.00 0.00 0.00 0.00 0.00 0.00 0.00 0.00 0.00 0.00 0.00 0.00 0.00 0.00 0.00 0.00 0.00 0.00 0.00 0.00 0.00 0.00 0.01 0.01 0.01 0.02 0.02 0.03 0.03 0.03
0.00 0.00 0.00 0.00 0.00 0.00 0.00 0.00 0.00 0.00 0.00 0.00 0.00 0.00 0.00 0.00 0.00 0.00 0.00 0.00 0.00 0.00 0.00 0.00 0.00 0.00 0.00 0.00 0.00 0.01 0.01 0.02 0.02 0.02 0.03 0.04 0.04 0.04
0.00 0.00 0.00 0.00 0.00 0.00 0.00 0.00 0.00 0.00 0.00 0.00 0.00 0.00 0.00 0.00 0.00 0.00 0.00 0.00 0.00 0.00 0.00 0.00 0.00 0.00 0.00 0.00 0.01 0.01 0.01 0.01 0.01 0.01 0.02 0.03 0.03 0.04
0.00 0.00 0.00 0.00 0.00 0.00 0.00 0.00 0.00 0.00 0.00 0.00 0.00 0.00 0.00 0.00 0.00 0.00 0.00 0.00 0.00 0.00 0.00 0.00 0.00 0.00 0.00 0.00 0.00 0.00 0.00 0.00 0.00 0.01 0.01 0.02 0.02 0.03
0.00 0.00 0.00 0.00 0.00 0.00 0.00 0.00 0.00 0.00 0.00 0.00 0.00 0.00 0.00 0.00 0.00 0.00 0.00 0.00 0.00 0.00 0.00 0.00 0.00 0.00 0.00 0.00 0.00 0.00 0.00 0.00 0.00 0.00 0.01 0.01 0.01 0.02
0.00 0.00 0.00 0.00 0.00 0.00 0.00 0.00 0.00 0.00 0.00 0.00 0.00 0.00 0.00 0.00 0.00 0.00 0.00 0.00 0.00 0.00 0.00 0.00 0.00 0.00 0.00 0.00 0.00 0.00 0.00 0.00 0.00 0.00 0.00 0.00 0.01 0.01
0.00 0.00 0.00 0.00 0.00 0.00 0.01 0.00 0.00 0.00 0.00 0.00 0.00 0.00 0.00 0.00 0.00 0.00 0.00 0.00 0.00 0.00 0.00 0.00 0.00 0.00 0.00 0.00 0.00 0.00 0.00 0.00 0.00 0.00 0.00 0.00 0.00 0.00
0.00 0.00 0.00 0.00 0.00 0.00 0.00 0.00 0.00 0.00 0.00 0.00 0.00 0.00 0.00 0.00 0.00 0.00 0.00 0.01 0.00 0.00 0.00 0.00 0.00 0.00 0.00 0.00 0.00 0.00 0.00 0.00 0.00 0.00 0.00 0.00 0.00 0.00
0.00 0.00 0.00 0.00 0.00 0.00 0.00 0.00 0.00 0.00 0.00 0.00 0.00 0.00 0.00 0.00 0.01 0.01 0.01 0.01 0.01 0.00 0.00 0.00 0.00 0.00 0.00 0.00 0.00 0.00 0.00 0.00 0.00 0.00 0.00 0.00 0.01 0.00
0.00 0.00 0.00 0.00 0.00 0.00 0.00 0.00 0.00 0.00 0.00 0.00 0.00 0.01 0.01 0.00 0.01 0.01 0.01 0.01 0.01 0.00 0.00 0.00 0.00 0.00 0.00 0.00 0.00 0.00 0.00 0.00 0.00 0.00 0.00 0.00 0.00 0.00
0.00 0.00 0.00 0.00 0.00 0.00 0.00 0.00 0.00 0.01 0.01 0.01 0.01 0.01 0.01 0.01 0.01 0.01 0.01 0.02 0.01 0.00 0.00 0.01 0.01 0.01 0.00 0.00 0.00 0.00 0.00 0.00 0.00 0.00 0.00 0.00 0.00 0.00
0.00 0.00 0.00 0.00 0.00 0.01 0.01 0.01 0.02 0.02 0.01 0.02 0.01 0.01 0.01 0.00 0.01 0.01 0.01 0.01 0.01 0.02 0.01 0.02 0.02 0.02 0.02 0.01 0.00 0.00 0.01 0.01 0.01 0.01 0.01 0.01 0.01 0.01
0.00 0.00 0.00 0.00 0.00 0.01 0.02 0.02 0.02 0.01 0.01 0.01 0.01 0.00 0.00 0.00 0.01 0.01 0.00 0.00 0.01 0.02 0.02 0.02 0.03 0.03 0.03 0.02 0.00 0.00 0.01 0.02 0.01 0.02 0.02 0.02 0.02 0.01
0.01 0.01 0.00 0.00 0.01 0.01 0.02 0.01 0.01 0.01 0.01 0.01 0.01 0.00 0.00 0.00 0.00 0.00 0.00 0.00 0.00 0.01 0.01 0.01 0.02 0.03 0.03 0.02 0.01 0.01 0.01 0.02 0.02 0.02 0.02 0.03 0.03 0.03
0.02 0.02 0.01 0.01 0.01 0.01 0.01 0.01 0.01 0.01 0.01 0.00 0.00 0.00 0.00 0.00 0.00 0.00 0.00 0.00 0.00 0.00 0.00 0.00 0.01 0.01 0.02 0.03 0.03 0.03 0.03 0.03 0.03 0.03 0.03 0.04 0.04 0.03
0.03 0.03 0.02 0.01 0.01 0.01 0.01 0.01 0.01 0.01 0.00 0.00 0.00 0.00 0.00 0.00 0.00 0.00 0.00 0.00 0.00 0.00 0.00 0.00 0.00 0.01 0.01 0.02 0.03 0.03 0.04 0.05 0.04 0.04 0.04 0.04 0.04 0.04
0.03 0.03 0.03 0.03 0.02 0.02 0.02 0.01 0.01 0.01 0.00 0.00 0.00 0.00 0.00 0.00 0.00 0.00 0.00 0.00 0.00 0.00 0.00 0.00 0.00 0.00 0.01 0.01 0.02 0.02 0.03 0.04 0.04 0.04 0.03 0.04 0.03 0.03
0.03 0.03 0.04 0.02 0.01 0.01 0.01 0.01 0.01 0.00 0.00 0.00 0.00 0.00 0.00 0.00 0.00 0.00 0.00 0.00 0.00 0.00 0.00 0.00 0.00 0.00 0.00 0.01 0.02 0.03 0.03 0.03 0.03 0.03 0.02 0.02 0.02 0.02
0.03 0.02 0.02 0.01 0.00 0.00 0.00 0.00 0.00 0.00 0.00 0.00 0.00 0.00 0.00 0.00 0.00 0.00 0.00 0.00 0.00 0.00 0.00 0.00 0.01 0.01 0.01 0.02 0.02 0.03 0.03 0.03 0.03 0.03 0.02 0.03 0.03 0.03
0.02 0.01 0.01 0.01 0.00 0.00 0.00 0.00 0.00 0.00 0.00 0.00 0.00 0.00 0.00 0.00 0.00 0.00 0.00 0.00 0.00 0.00 0.00 0.01 0.01 0.01 0.02 0.03 0.03 0.03 0.02 0.03 0.03 0.03 0.03 0.02 0.03 0.04
0.00 0.00 0.00 0.00 0.00 0.00 0.00 0.00 0.00 0.00 0.00 0.00 0.00 0.00 0.00 0.00 0.00 0.00 0.00 0.00 0.00 0.00 0.00 0.01 0.01 0.01 0.01 0.01 0.02 0.03 0.02 0.03 0.03 0.03 0.02 0.02 0.02 0.02
0.00 0.00 0.00 0.00 0.00 0.00 0.00 0.00 0.00 0.00 0.00 0.00 0.00 0.00 0.00 0.00 0.00 0.00 0.00 0.00 0.00 0.01 0.00 0.00 0.00 0.01 0.01 0.02 0.02 0.03 0.03 0.02 0.02 0.03 0.03 0.03 0.03 0.04
0.00 0.00 0.00 0.00 0.00 0.00 0.00 0.00 0.00 0.00 0.00 0.00 0.00 0.00 0.00 0.00 0.00 0.00 0.00 0.00 0.00 0.00 0.00 0.00 0.00 0.00 0.01 0.01 0.01 0.02 0.02 0.02 0.01 0.01 0.02 0.04 0.06 0.07
MSLP
1023.93 1023.88 1023.82 1023.76 1023.69 1023.62 1023.53 1023.43 1023.32 1023.20 1023.07 1022.93 1022.76 1022.56 1022.33 1022.06 1021.75 1021.41 1021.05 1020.68 1020.32 1019.99 1019.69 1019.43 1019.21 1019.02 1018.85 1018.70 1018.55 1018.39 1018.23 1018.05 1017.85 1017.65 1017.44 1017.23 1017.02 1016.82
1024.44 1024.32 1024.20 1024.07 1023.93 1023.79 1023.65 1023.51 1023.37 1023.22 1023.07 1022.90 1022.70 1022.48 1022.21 1021.90 1021.55 1021.17 1020.78 1020.38 1020.01 1019.66 1019.35 1019.08 1018.85 1018.65 1018.46 1018.27 1018.08 1017.88 1017.67 1017.45 1017.21 1016.97 1016.72 1016.48 1016.26 1016.05
1024.82 1024.65 1024.46 1024.26 1024.06 1023.86 1023.67 1023.49 1023.31 1023.14 1022.96 1022.77 1022.55 1022.29 1021.99 1021.65 1021.26 1020.86 1020.44 1020.02 1019.63 1019.27 1018.95 1018.67 1018.43 1018.20 1017.99 1017.78 1017.56 1017.32 1017.07 1016.82 1016.55 1016.29 1016.03 1015.78 1015.54 1015.33
1025.06 1024.84 1024.60 1024.34 1024.09 1023.84 1023.60 1023.39 1023.18 1022.98 1022.78 1022.56 1022.32 1022.03 1021.71 1021.34 1020.93 1020.50 1020.06 1019.63 1019.22 1018.85 1018.52 1018.22 1017.95 1017.70 1017.46 1017.21 1016.96 1016.69 1016.42 1016.14 1015.86 1015.59 1015.33 1015.09 1014.86 1014.65
1025.17 1024.91 1024.63 1024.33 1024.04 1023.75 1023.47 1023.22 1022.98 1022.75 1022.53 1022.29 1022.02 1021.72 1021.38 1020.99 1020.57 1020.12 1019.67 1019.23 1018.80 1018.41 1018.05 1017.73 1017.43 1017.14 1016.86 1016.57 1016.28 1015.99 1015.69 1015.40 1015.12 1014.86 1014.61 1014.38 1014.17 1013.98
1025.19 1024.90 1024.59 1024.26 1023.93 1023.60 1023.29 1023.00 1022.73 1022.48 1022.22 1021.96 1021.68 1021.36 1021.01 1020.61 1020.18 1019.73 1019.27 1018.82 1018.38 1017.97 1017.58 1017.22 1016.87 1016.54 1016.20 1015.87 1015.54 1015.21 1014.89 1014.59 1014.31 1014.06 1013.84 1013.63 1013.45 1013.28
1025.13 1024.83 1024.49 1024.14 1023.78 1023.42 1023.08 1022.75 1022.45 1022.16 1021.87 1021.59 1021.29 1020.96 1020.59 1020.20 1019.77 1019.33 1018.87 1018.41 1017.97 1017.53 1017.11 1016.71 1016.31 1015.91 1015.52 1015.13 1014.74 1014.37 1014.03 1013.72 1013.44 1013.20 1012.99 1012.82 1012.66 1012.52
1025.04 1024.72 1024.37 1024.00 1023.60 1023.21 1022.83 1022.47 1022.12 1021.79 1021.48 1021.17 1020.85 1020.51 1020.15 1019.76 1019.35 1018.92 1018.47 1018.02 1017.57 1017.12 1016.67 1016.22 1015.76 1015.31 1014.85 1014.39 1013.95 1013.53 1013.15 1012.82 1012.53 1012.30 1012.11 1011.95 1011.82 1011.70
1024.93 1024.60 1024.23 1023.83 1023.41 1022.98 1022.56 1022.15 1021.77 1021.40 1021.05 1020.71 1020.38 1020.04 1019.69 1019.32 1018.93 1018.52 1018.10 1017.66 1017.21 1016.75 1016.28 1015.79 1015.28 1014.76 1014.24 1013.72 1013.22 1012.75 1012.33 1011.97 1011.66 1011.42 1011.23 1011.09 1010.97 1010.88
1024.82 1024.46 1024.07 1023.64 1023.18 1022.72 1022.26 1021.80 1021.37 1020.97 1020.59 1020.24 1019.90 1019.56 1019.23 1018.89 1018.53 1018.16 1017.77 1017.36 1016.92 1016.46 1015.97 1015.45 1014.91 1014.34 1013.76 1013.19 1012.63 1012.11 1011.64 1011.24 1010.90 1010.64 1010.44 1010.29 1010.18 1010.09
1024.70 1024.31 1023.88 1023.41 1022.92 1022.42 1021.92 1021.43 1020.97 1020.54 1020.14 1019.77 1019.44 1019.12 1018.81 1018.50 1018.19 1017.86 1017.51 1017.13 1016.71 1016.26 1015.77 1015.24 1014.67 1014.07 1013.45 1012.83 1012.23 1011.66 1011.15 1010.70 1010.33 1010.04 1009.81 1009.65 1009.52 1009.43
1024.55 1024.12 1023.65 1023.15 1022.63 1022.09 1021.56 1021.04 1020.56 1020.11 1019.71 1019.35 1019.02 1018.73 1018.45 1018.18 1017.91 1017.63 1017.31 1016.97 1016.58 1016.15 1015.67 1015.14 1014.56 1013.95 1013.31 1012.67 1012.04 1011.44 1010.89 1010.41 1010.00 1009.66 1009.39 1009.19 1009.04 1008.92
1024.38 1023.90 1023.39 1022.85 1022.30 1021.74 1021.20 1020.67 1020.18 1019.73 1019.34 1018.99 1018.69 1018.42 1018.17 1017.94 1017.71 1017.46 1017.18 1016.87 1016.52 1016.11 1015.65 1015.13 1014.57 1013.96 1013.33 1012.68 1012.04 1011.42 1010.85 1010.34 1009.89 1009.51 1009.20 1008.96 1008.76 1008.61
1024.18 1023.65 1023.11 1022.55 1021.97 1021.41 1020.86 1020.33 1019.85 1019.42 1019.04 1018.71 1018.43 1018.19 1017.97 1017.77 1017.56 1017.34 1017.09 1016.80 1016.47 1016.09 1015.65 1015.16 1014.63 1014.05 1013.44 1012.81 1012.19 1011.58 1011.00 1010.47 1009.99 1009.57 1009.22 1008.92 1008.67 1008.47
1023.96 1023.41 1022.84 1022.26 1021.68 1021.12 1020.58 1020.07 1019.61 1019.20 1018.84 1018.53 1018.27 1018.04 1017.83 1017.64 1017.44 1017.23 1016.99 1016.72 1016.40 1016.04 1015.64 1015.18 1014.69 1014.15 1013.59 1013.00 1012.41 1011.83 1011.26 1010.72 1010.23 1009.78 1009.39 1009.04 1008.74 1008.48
1023.77 1023.19 1022.61 1022.04 1021.47 1020.92 1020.40 1019.92 1019.48 1019.09 1018.74 1018.44 1018.18 1017.95 1017.74 1017.53 1017.32 1017.10 1016.85 1016.58 1016.28 1015.94 1015.56 1015.15 1014.70 1014.22 1013.71 1013.18 1012.64 1012.10 1011.56 1011.04 1010.54 1010.07 1009.64 1009.24 1008.89 1008.57
1023.64 1023.06 1022.49 1021.93 1021.38 1020.85 1020.36 1019.90 1019.47 1019.09 1018.75 1018.44 1018.17 1017.91 1017.67 1017.43 1017.19 1016.94 1016.68 1016.39 1016.09 1015.76 1015.41 1015.04 1014.64 1014.22 1013.78 1013.31 1012.83 1012.34 1011.84 1011.34 1010.85 1010.37 1009.91 1009.48 1009.07 1008.70
1023.62 1023.06 1022.51 1021.98 1021.45 1020.95 1020.47 1020.02 1019.60 1019.22 1018.86 1018.53 1018.21 1017.92 1017.63 1017.34 1017.06 1016.77 1016.47 1016.16 1015.85 1015.53 1015.21 1014.87 1014.53 1014.16 1013.79 1013.39 1012.97 1012.53 1012.07 1011.60 1011.12 1010.65 1010.17 1009.70 1009.26 1008.84
1023.74 1023.22 1022.70 1022.19 1021.69 1021.21 1020.74 1020.29 1019.86 1019.45 1019.06 1018.68 1018.32 1017.97 1017.62 1017.28 1016.94 1016.60 1016.27 1015.94 1015.62 1015.32 1015.01 1014.71 1014.41 1014.10 1013.77 1013.43 1013.07 1012.68 1012.26 1011.81 1011.35 1010.87 1010.39 1009.90 1009.43 1008.97
1024.02 1023.54 1023.05 1022.57 1022.09 1021.61 1021.14 1020.68 1020.22 1019.77 1019.33 1018.90 1018.48 1018.06 1017.65 1017.25 1016.86 1016.49 1016.13 1015.79 1015.47 1015.17 1014.88 1014.61 1014.34 1014.07 1013.79 1013.49 1013.16 1012.80 1012.41 1011.99 1011.54 1011.07 1010.59 1010.09 1009.61 1009.13
1024.43 1023.99 1023.53 1023.06 1022.59 1022.10 1021.62 1021.13 1020.63 1020.14 1019.64 1019.15 1018.67 1018.20 1017.74 1017.29 1016.87 1016.46 1016.09 1015.75 1015.43 1015.14 1014.88 1014.63 1014.38 1014.14 1013.88 1013.60 1013.30 1012.96 1012.58 1012.17 1011.73 1011.27 1010.79 1010.30 1009.81 1009.34
1024.93 1024.51 1024.07 1023.61 1023.13 1022.63 1022.12 1021.59 1021.05 1020.51 1019.96 1019.42 1018.89 1018.37 1017.87 1017.40 1016.96 1016.55 1016.18 1015.84 1015.54 1015.27 1015.02 1014.79 1014.56 1014.32 1014.07 1013.80 1013.50 1013.16 1012.79 1012.39 1011.96 1011.50 1011.04 1010.56 1010.09 1009.63
1025.44 1025.04 1024.60 1024.14 1023.64 1023.12 1022.58 1022.01 1021.43 1020.85 1020.26 1019.68 1019.11 1018.57 1018.06 1017.58 1017.14 1016.74 1016.39 1016.07 1015.79 1015.54 1015.31 1015.08 1014.86 1014.63 1014.37 1014.09 1013.78 1013.44 1013.07 1012.66 1012.24 1011.80 1011.36 1010.91 1010.47 1010.04
Thickness
5564 5560 5556 5552 5548 5544 5540 5537 5534 5533 5531 5525 5521 5519 5515 5514 5513 5511 5509 5507 5506 5504 5503 5501 5499 5498 5496 5494 5493 5491 5490 5489 5489 5488 5488 5489 5490 5491
5545 5541 5537 5533 5529 5526 5522 5517 5514 5512 5511 5507 5503 5500 5497 5495 5495 5493 5493 5491 5490 5489 5487 5486 5484 5483 5481 5480 5478 5477 5476 5475 5474 5474 5474 5475 5476 5477
5525 5522 5518 5514 5510 5506 5502 5498 5495 5491 5489 5489 5484 5482 5480 5479 5479 5478 5477 5476 5475 5474 5473 5472 5471 5470 5469 5467 5466 5465 5464 5463 5462 5462 5462 5462 5463 5464
5507 5503 5499 5496 5492 5488 5484 5480 5476 5472 5470 5470 5468 5466 5465 5464 5464 5464 5463 5463 5462 5461 5460 5460 5459 5458 5457 5456 5454 5453 5452 5451 5451 5450 5451 5452 5452 5453
5488 5484 5480 5477 5475 5471 5467 5464 5460 5457 5453 5451 5452 5450 5450 5450 5451 5451 5451 5450 5450 5450 5450 5450 5449 5448 5447 5446 5445 5444 5444 5443 5443 5442 5441 5442 5443 5444
5470 5466 5463 5460 5458 5455 5453 5449 5446 5443 5441 5439 5439 5439 5439 5440 5439 5440 5442 5442 5441 5441 5442 5441 5441 5440 5440 5439 5439 5438 5437 5436 5435 5434 5434 5434 5434 5435
5451 5448 5447 5446 5444 5441 5440 5437 5435 5433 5431 5430 5430 5430 5431 5432 5431 5431 5432 5434 5434 5434 5435 5433 5434 5434 5434 5434 5433 5433 5431 5430 5429 5428 5427 5427 5427 5428
5433 5432 5431 5431 5430 5429 5428 5427 5426 5425 5423 5422 5422 5423 5425 5425 5425 5425 5425 5427 5430 5430 5427 5429 5428 5429 5429 5428 5428 5427 5425 5424 5423 5422 5421 5421 5421 5422
5418 5417 5418 5418 5418 5418 5419 5419 5420 5419 5418 5418 5419 5420 5421 5422 5421 5422 5422 5422 5423 5425 5423 5425 5425 5425 5424 5424 5423 5422 5420 5418 5417 5416 5415 5415 5415 5416
5408 5407 5407 5409 5410 5410 5411 5413 5415 5417 5417 5417 5417 5419 5419 5419 5418 5418 5418 5418 5419 5421 5419 5420 5422 5421 5421 5420 5419 5417 5415 5413 5412 5411 5410 5410 5410 5411
5403 5403 5403 5404 5405 5405 5407 5409 5412 5416 5418 5418 5418 5418 5419 5419 5418 5417 5417 5417 5418 5419 5417 5415 5416 5416 5416 5416 5414 5412 5410 5408 5407 5406 5406 5406 5406 5406
5400 5401 5402 5402 5404 5405 5406 5408 5411 5415 5416 5418 5418 5419 5419 5419 5418 5416 5415 5414 5413 5414 5414 5410 5410 5409 5410 5410 5409 5407 5405 5404 5404 5403 5403 5402 5402 5402
5398 5401 5403 5404 5406 5408 5409 5410 5411 5413 5415 5416 5417 5418 5419 5418 5417 5416 5413 5410 5409 5409 5408 5405 5405 5403 5401 5403 5404 5404 5402 5401 5400 5400 5400 5400 5400 5399
5398 5400 5403 5406 5408 5411 5413 5414 5415 5416 5416 5416 5417 5418 5417 5417 5416 5414 5412 5410 5408 5406 5405 5402 5400 5399 5398 5398 5399 5400 5399 5399 5397 5397 5397 5398 5398 5397
5400 5403 5406 5409 5412 5414 5416 5417 5418 5418 5417 5417 5417 5417 5416 5414 5413 5413 5412 5410 5409 5407 5405 5401 5398 5396 5394 5394 5394 5394 5395 5396 5395 5395 5395 5395 5395 5395
5404 5407 5410 5413 5415 5417 5418 5420 5420 5419 5418 5417 5417 5416 5415 5415 5413 5411 5409 5408 5407 5407 5405 5403 5400 5397 5395 5394 5392 5392 5392 5393 5393 5393 5393 5393 5392 5392
5406 5409 5412 5414 5417 5418 5420 5421 5421 5421 5420 5419 5418 5417 5416 5415 5413 5411 5408 5406 5405 5404 5404 5404 5402 5400 5398 5394 5393 5393 5392 5392 5392 5392 5392 5393 5392 5391
5409 5410 5412 5413 5415 5417 5419 5420 5422 5421 5420 5420 5419 5417 5416 5415 5413 5411 5409 5407 5405 5405 5403 5403 5402 5403 5402 5399 5394 5393 5393 5393 5393 5393 5393 5393 5394 5392
5410 5411 5412 5414 5415 5417 5418 5419 5420 5420 5420 5420 5420 5419 5417 5416 5415 5413 5411 5409 5408 5406 5405 5403 5402 5401 5401 5401 5400 5396 5394 5395 5395 5396 5395 5394 5394 5394
5411 5411 5413 5414 5416 5417 5418 5419 5420 5421 5421 5421 5420 5420 5418 5417 5416 5414 5412 5410 5409 5407 5407 5406 5405 5402 5401 5400 5399 5399 5398 5397 5398 5398 5398 5398 5398 5398
5411 5412 5413 5414 5416 5417 5418 5419 5420 5421 5421 5421 5421 5420 5419 5418 5417 5416 5415 5411 5410 5410 5409 5408 5406 5405 5404 5404 5404 5404 5403 5401 5400 5400 5401 5402 5403 5403
5412 5412 5414 5415 5416 5417 5418 5419 5421 5421 5421 5421 5420 5420 5420 5420 5419 5418 5417 5415 5413 5412 5411 5411 5410 5409 5409 5408 5407 5406 5407 5407 5406 5404 5403 5403 5403 5403
5411 5413 5414 5415 5416 5417 5419 5420 5421 5422 5421 5420 5420 5421 5421 5422 5421 5420 5419 5417 5416 5415 5414 5414 5414 5413 5411 5410 5409 5410 5410 5411 5411 5411 5409 5407 5406 5404